This is the latest recevied weather packets stored in our database for station/object K4PAD. If no packets are shown the sender has not sent any weather packets the latest 10 day(s).
| Time | Temp. | Humidity | Pressure | Rain* | Wind** | Luminosity | Snow |
|---|---|---|---|---|---|---|---|
| 1778000055 | 28.33° C | 41% | 1018.4 hPa | 0 mm | - | 1162 W/m² | - |
| 1777999749 | 27.78° C | 41% | 1018.5 hPa | 0 mm | - | 1142 W/m² | - |
| 1777999447 | 27.78° C | 42% | 1018.6 hPa | 0 mm | - | 347 W/m² | - |
| 1777999145 | 27.78° C | 44% | 1018.4 hPa | 0 mm | - | 515 W/m² | - |
| 1777998843 | 27.78° C | 42% | 1018.5 hPa | 0 mm | - | 801 W/m² | - |
| 1777998542 | 27.78° C | 42% | 1018.3 hPa | 0 mm | - | 744 W/m² | - |
| 1777998237 | 27.22° C | 45% | 1018.7 hPa | 0 mm | - | 793 W/m² | - |
| 1777997934 | 27.22° C | 47% | 1018.8 hPa | 0 mm | - | 590 W/m² | - |
| 1777997631 | 27.22° C | 46% | 1018.7 hPa | 0 mm | - | 400 W/m² | - |
| 1777997329 | 28.33° C | 42% | 1018.7 hPa | 0 mm | - | 828 W/m² | - |
| 1777997027 | 28.33° C | 43% | 1018.7 hPa | 0 mm | - | 1029 W/m² | - |
| 1777996723 | 27.78° C | 45% | 1018.9 hPa | 0 mm | - | 1036 W/m² | - |
| 1777996419 | 27.78° C | 46% | 1018.7 hPa | 0 mm | - | 1009 W/m² | - |
| 1777996116 | 27.78° C | 47% | 1018.8 hPa | 0 mm | - | 973 W/m² | - |
| 1777995813 | 27.22° C | 46% | 1018.6 hPa | 0 mm | - | 997 W/m² | - |
| 1777995509 | 27.22° C | 46% | 1018.8 hPa | 0 mm | - | 912 W/m² | - |
| 1777995206 | 26.67° C | 48% | 1018.7 hPa | 0 mm | - | 960 W/m² | - |
| 1777994903 | 26.67° C | 48% | 1018.7 hPa | 0 mm | - | 921 W/m² | - |
| 1777994600 | 27.22° C | 47% | 1018.9 hPa | 0 mm | - | 899 W/m² | - |
| 1777994299 | 26.67° C | 50% | 1018.5 hPa | 0 mm | - | 884 W/m² | - |
| 1777993997 | 26.67° C | 48% | 1018.8 hPa | 0 mm | - | 869 W/m² | - |
| 1777993694 | 26.67° C | 49% | 1018.9 hPa | 0 mm | - | 844 W/m² | - |
| 1777993391 | 26.67° C | 48% | 1018.7 hPa | 0 mm | - | 824 W/m² | - |
| 1777993085 | 26.11° C | 51% | 1018.7 hPa | 0 mm | - | 824 W/m² | - |
| 1777992784 | 26.67° C | 51% | 1018.7 hPa | 0 mm | - | 797 W/m² | - |
* Rain latest hour (hover to see other rain measurements)
** Current wind speed in m/s (hover to see current wind gust speed)